Time,TemperatureF,DewpointF,PressureIn,WindDirection,WindDirectionDegrees,WindSpeedMPH,WindSpeedGustMPH,Humidity,HourlyPrecipIn,Conditions,Clouds,dailyrainin,SoftwareType,DateUTC
2013-05-19 00:09:00,74.7,70.0,29.91,SSW,213,0.0,6.0,85,0.00,,,0.00,weatherlink.com 1.10,2013-05-19 05:09:00,
2013-05-19 00:24:00,74.6,70.0,29.92,WSW,239,0.0,3.0,85,0.00,,,0.00,weatherlink.com 1.10,2013-05-19 05:24:00,
2013-05-19 00:39:00,74.8,70.0,29.92,SW,230,2.0,10.0,85,0.00,,,0.00,weatherlink.com 1.10,2013-05-19 05:39:00,
2013-05-19 00:54:00,74.7,70.0,29.91,ESE,113,0.0,5.0,85,0.00,,,0.00,weatherlink.com 1.10,2013-05-19 05:54:00,
2013-05-19 01:09:00,74.5,70.0,29.90,SE,139,0.0,6.0,85,0.00,,,0.00,weatherlink.com 1.10,2013-05-19 06:09:00,
2013-05-19 01:24:00,74.5,70.0,29.90,SSW,207,0.0,4.0,85,0.00,,,0.00,weatherlink.com 1.10,2013-05-19 06:24:00,
2013-05-19 01:39:00,74.5,70.0,29.89,SW,236,0.0,4.0,85,0.00,,,0.00,weatherlink.com 1.10,2013-05-19 06:39:00,
2013-05-19 01:54:00,74.4,70.0,29.89,SE,135,0.0,5.0,85,0.00,,,0.00,weatherlink.com 1.10,2013-05-19 06:54:00,
2013-05-19 02:09:00,74.1,70.0,29.88,SSE,149,0.0,1.0,86,0.00,,,0.00,weatherlink.com 1.10,2013-05-19 07:09:00,
2013-05-19 02:24:00,74.0,70.0,29.89,SE,132,1.0,2.0,86,0.00,,,0.00,weatherlink.com 1.10,2013-05-19 07:24:00,
2013-05-19 02:39:00,74.0,70.0,29.89,SE,143,0.0,3.0,86,0.00,,,0.00,weatherlink.com 1.10,2013-05-19 07:39:00,
2013-05-19 02:54:00,73.9,70.0,29.88,SSE,164,1.0,7.0,87,0.00,,,0.00,weatherlink.com 1.10,2013-05-19 07:54:00,
2013-05-19 03:09:00,74.0,70.0,29.89,South,180,0.0,1.0,86,0.00,,,0.00,weatherlink.com 1.10,2013-05-19 08:09:00,
2013-05-19 03:24:00,74.0,70.0,29.89,WNW,303,0.0,7.0,86,0.00,,,0.00,weatherlink.com 1.10,2013-05-19 08:24:00,
2013-05-19 03:39:00,74.2,70.0,29.89,SW,226,0.0,7.0,86,0.00,,,0.00,weatherlink.com 1.10,2013-05-19 08:39:00,
2013-05-19 03:54:00,74.2,70.0,29.90,SE,136,0.0,3.0,86,0.00,,,0.00,weatherlink.com 1.10,2013-05-19 08:54:00,
2013-05-19 04:09:00,73.9,70.0,29.90,West,260,0.0,0.0,86,0.00,,,0.00,weatherlink.com 1.10,2013-05-19 09:09:00,
2013-05-19 04:24:00,73.7,69.0,29.90,South,186,1.0,2.0,86,0.00,,,0.00,weatherlink.com 1.10,2013-05-19 09:24:00,
2013-05-19 04:39:00,74.0,70.0,29.90,SSE,149,0.0,2.0,86,0.00,,,0.00,weatherlink.com 1.10,2013-05-19 09:39:00,
2013-05-19 04:54:00,74.2,70.0,29.90,SSE,147,0.0,1.0,86,0.00,,,0.00,weatherlink.com 1.10,2013-05-19 09:54:00,
2013-05-19 05:09:00,74.0,70.0,29.90,SSW,197,0.0,1.0,86,0.00,,,0.00,weatherlink.com 1.10,2013-05-19 10:09:00,
2013-05-19 05:24:00,73.8,69.0,29.89,South,177,0.0,1.0,86,0.00,,,0.00,weatherlink.com 1.10,2013-05-19 10:24:00,
2013-05-19 05:39:00,73.5,69.0,29.89,South,174,0.0,4.0,86,0.00,,,0.00,weatherlink.com 1.10,2013-05-19 10:39:00,
2013-05-19 05:54:00,73.6,69.0,29.89,WSW,249,0.0,3.0,86,0.00,,,0.00,weatherlink.com 1.10,2013-05-19 10:54:00,
2013-05-19 06:10:00,73.4,69.0,29.89,South,188,1.0,5.0,87,0.00,,,0.00,weatherlink.com 1.10,2013-05-19 11:10:00,
2013-05-19 06:26:00,73.1,69.0,29.88,South,181,0.0,3.0,87,0.00,,,0.00,weatherlink.com 1.10,2013-05-19 11:26:00,
2013-05-19 06:40:00,73.2,69.0,29.89,SSW,192,0.0,2.0,87,0.00,,,0.00,weatherlink.com 1.10,2013-05-19 11:40:00,
2013-05-19 06:55:00,73.4,69.0,29.89,South,176,0.0,5.0,87,0.00,,,0.00,weatherlink.com 1.10,2013-05-19 11:55:00,
2013-05-19 07:10:00,73.6,70.0,29.89,SE,139,3.0,7.0,87,0.00,,,0.00,weatherlink.com 1.10,2013-05-19 12:10:00,
2013-05-19 07:25:00,74.0,70.0,29.90,East,82,0.0,6.0,87,0.00,,,0.00,weatherlink.com 1.10,2013-05-19 12:25:00,
2013-05-19 07:40:00,74.4,70.0,29.91,SSW,213,0.0,7.0,87,0.00,,,0.00,weatherlink.com 1.10,2013-05-19 12:40:00,
2013-05-19 07:55:00,75.3,71.0,29.91,SSW,201,0.0,2.0,86,0.00,,,0.00,weatherlink.com 1.10,2013-05-19 12:55:00,
2013-05-19 08:10:00,75.9,71.0,29.91,SW,220,0.0,3.0,85,0.00,,,0.00,weatherlink.com 1.10,2013-05-19 13:10:00,
2013-05-19 08:25:00,76.0,71.0,29.91,SE,143,0.0,7.0,84,0.00,,,0.00,weatherlink.com 1.10,2013-05-19 13:25:00,
2013-05-19 08:40:00,76.3,71.0,29.91,SSE,159,4.0,5.0,83,0.00,,,0.00,weatherlink.com 1.10,2013-05-19 13:40:00,
2013-05-19 08:55:00,76.4,71.0,29.91,SW,224,0.0,2.0,83,0.00,,,0.00,weatherlink.com 1.10,2013-05-19 13:55:00,
2013-05-19 09:10:00,76.9,71.0,29.91,SSE,151,0.0,3.0,83,0.00,,,0.00,weatherlink.com 1.10,2013-05-19 14:10:00,
2013-05-19 09:25:00,77.4,71.0,29.91,East,100,0.0,4.0,81,0.00,,,0.00,weatherlink.com 1.10,2013-05-19 14:25:00,
2013-05-19 09:40:00,79.4,72.0,29.91,SSE,153,0.0,5.0,77,0.00,,,0.00,weatherlink.com 1.10,2013-05-19 14:40:00,
2013-05-19 09:55:00,80.8,71.0,29.91,SSW,204,0.0,6.0,72,0.00,,,0.00,weatherlink.com 1.10,2013-05-19 14:55:00,
2013-05-19 10:10:00,82.1,71.0,29.91,South,169,0.0,5.0,70,0.00,,,0.00,weatherlink.com 1.10,2013-05-19 15:10:00,
2013-05-19 10:25:00,82.8,73.0,29.91,SSE,149,0.0,4.0,71,0.00,,,0.00,weatherlink.com 1.10,2013-05-19 15:25:00,
2013-05-19 10:40:00,83.5,72.0,29.90,East,97,4.0,5.0,68,0.00,,,0.00,weatherlink.com 1.10,2013-05-19 15:40:00,
2013-05-19 10:55:00,84.9,71.0,29.91,SSE,153,1.0,8.0,64,0.00,,,0.00,weatherlink.com 1.10,2013-05-19 15:55:00,
2013-05-19 11:10:00,85.5,71.0,29.90,ESE,111,0.0,6.0,63,0.00,,,0.00,weatherlink.com 1.10,2013-05-19 16:10:00,
2013-05-19 11:25:00,86.1,73.0,29.90,South,190,0.0,4.0,65,0.00,,,0.00,weatherlink.com 1.10,2013-05-19 16:25:00,
2013-05-19 11:40:00,87.3,72.0,29.90,West,267,3.0,5.0,61,0.00,,,0.00,weatherlink.com 1.10,2013-05-19 16:40:00,
2013-05-19 11:55:00,87.6,71.0,29.90,WNW,289,2.0,7.0,58,0.00,,,0.00,weatherlink.com 1.10,2013-05-19 16:55:00,
2013-05-19 12:10:00,87.6,71.0,29.90,SE,136,0.0,6.0,58,0.00,,,0.00,weatherlink.com 1.10,2013-05-19 17:10:00,
2013-05-19 12:25:00,88.5,72.0,29.89,ESE,119,5.0,10.0,58,0.00,,,0.00,weatherlink.com 1.10,2013-05-19 17:25:00,
2013-05-19 12:40:00,89.2,72.0,29.89,ESE,106,0.0,6.0,57,0.00,,,0.00,weatherlink.com 1.10,2013-05-19 17:40:00,
2013-05-19 12:55:00,88.4,70.0,29.89,WSW,237,0.0,5.0,54,0.00,,,0.00,weatherlink.com 1.10,2013-05-19 17:55:00,
2013-05-19 13:10:00,89.5,70.0,29.88,WSW,255,0.0,10.0,53,0.00,,,0.00,weatherlink.com 1.10,2013-05-19 18:10:00,
2013-05-19 13:25:00,89.3,71.0,29.88,SE,143,2.0,6.0,55,0.00,,,0.00,weatherlink.com 1.10,2013-05-19 18:25:00,
2013-05-19 13:40:00,90.2,70.0,29.88,South,189,3.0,7.0,52,0.00,,,0.00,weatherlink.com 1.10,2013-05-19 18:40:00,
2013-05-19 13:55:00,90.6,72.0,29.88,WSW,257,2.0,6.0,54,0.00,,,0.00,weatherlink.com 1.10,2013-05-19 18:55:00,
2013-05-19 14:11:00,90.8,70.0,29.87,SSE,159,0.0,7.0,51,0.00,,,0.00,weatherlink.com 1.10,2013-05-19 19:11:00,
2013-05-19 14:25:00,90.4,71.0,29.86,South,170,1.0,6.0,53,0.00,,,0.00,weatherlink.com 1.10,2013-05-19 19:25:00,
2013-05-19 14:41:00,90.7,71.0,29.86,SE,132,3.0,10.0,52,0.00,,,0.00,weatherlink.com 1.10,2013-05-19 19:41:00,
2013-05-19 14:56:00,90.8,70.0,29.85,NE,44,0.0,7.0,50,0.00,,,0.00,weatherlink.com 1.10,2013-05-19 19:56:00,
2013-05-19 15:11:00,90.9,70.0,29.85,SSW,207,1.0,6.0,51,0.00,,,0.00,weatherlink.com 1.10,2013-05-19 20:11:00,
2013-05-19 15:26:00,91.0,70.0,29.85,SSE,165,0.0,8.0,50,0.00,,,0.00,weatherlink.com 1.10,2013-05-19 20:26:00,
2013-05-19 15:41:00,90.9,69.0,29.84,SSW,213,0.0,5.0,48,0.00,,,0.00,weatherlink.com 1.10,2013-05-19 20:41:00,
2013-05-19 15:56:00,90.9,68.0,29.84,SSE,149,0.0,9.0,47,0.00,,,0.00,weatherlink.com 1.10,2013-05-19 20:56:00,
2013-05-19 16:11:00,91.1,69.0,29.83,SSE,165,0.0,4.0,48,0.00,,,0.00,weatherlink.com 1.10,2013-05-19 21:11:00,
2013-05-19 16:26:00,90.6,70.0,29.83,NE,45,5.0,9.0,51,0.00,,,0.00,weatherlink.com 1.10,2013-05-19 21:26:00,
2013-05-19 16:41:00,90.4,70.0,29.83,SSE,163,1.0,7.0,51,0.00,,,0.00,weatherlink.com 1.10,2013-05-19 21:41:00,
2013-05-19 16:56:00,90.0,70.0,29.82,South,185,0.0,5.0,52,0.00,,,0.00,weatherlink.com 1.10,2013-05-19 21:56:00,
2013-05-19 17:11:00,89.8,69.0,29.82,South,184,0.0,6.0,51,0.00,,,0.00,weatherlink.com 1.10,2013-05-19 22:11:00,
2013-05-19 17:26:00,89.6,70.0,29.82,SE,126,3.0,6.0,53,0.00,,,0.00,weatherlink.com 1.10,2013-05-19 22:26:00,
2013-05-19 17:41:00,89.7,70.0,29.82,ESE,104,0.0,4.0,52,0.00,,,0.00,weatherlink.com 1.10,2013-05-19 22:41:00,
2013-05-19 17:56:00,89.2,70.0,29.81,SSW,199,0.0,7.0,53,0.00,,,0.00,weatherlink.com 1.10,2013-05-19 22:56:00,
2013-05-19 18:11:00,88.0,69.0,29.81,SSE,165,2.0,4.0,54,0.00,,,0.00,weatherlink.com 1.10,2013-05-19 23:11:00,
2013-05-19 18:26:00,87.1,70.0,29.82,WSW,251,0.0,6.0,57,0.00,,,0.00,weatherlink.com 1.10,2013-05-19 23:26:00,
2013-05-19 18:41:00,86.6,70.0,29.81,SSE,157,0.0,5.0,58,0.00,,,0.00,weatherlink.com 1.10,2013-05-19 23:41:00,
2013-05-19 18:56:00,85.2,69.0,29.81,ENE,74,0.0,8.0,59,0.00,,,0.00,weatherlink.com 1.10,2013-05-19 23:56:00,
2013-05-19 19:11:00,83.6,70.0,29.81,NNW,330,0.0,7.0,64,0.00,,,0.00,weatherlink.com 1.10,2013-05-20 00:11:00,
2013-05-19 19:26:00,82.6,71.0,29.81,SSW,207,1.0,1.0,67,0.00,,,0.00,weatherlink.com 1.10,2013-05-20 00:26:00,
2013-05-19 19:41:00,81.8,71.0,29.82,SW,224,0.0,7.0,69,0.00,,,0.00,weatherlink.com 1.10,2013-05-20 00:41:00,
2013-05-19 19:56:00,81.2,71.0,29.83,SE,135,0.0,6.0,71,0.00,,,0.00,weatherlink.com 1.10,2013-05-20 00:56:00,
2013-05-19 20:11:00,80.6,70.0,29.83,ESE,109,0.0,7.0,71,0.00,,,0.00,weatherlink.com 1.10,2013-05-20 01:11:00,
2013-05-19 20:26:00,80.0,71.0,29.83,South,176,0.0,3.0,74,0.00,,,0.00,weatherlink.com 1.10,2013-05-20 01:26:00,
2013-05-19 20:41:00,79.6,71.0,29.83,SE,144,0.0,5.0,75,0.00,,,0.00,weatherlink.com 1.10,2013-05-20 01:41:00,
2013-05-19 20:56:00,79.2,71.0,29.85,SSW,192,0.0,8.0,76,0.00,,,0.00,weatherlink.com 1.10,2013-05-20 01:56:00,
2013-05-19 21:11:00,78.8,71.0,29.85,South,184,2.0,4.0,77,0.00,,,0.00,weatherlink.com 1.10,2013-05-20 02:11:00,
2013-05-19 21:26:00,78.4,71.0,29.86,South,173,0.0,8.0,78,0.00,,,0.00,weatherlink.com 1.10,2013-05-20 02:26:00,
2013-05-19 21:41:00,78.1,71.0,29.86,SW,217,1.0,3.0,79,0.00,,,0.00,weatherlink.com 1.10,2013-05-20 02:41:00,
2013-05-19 21:56:00,77.8,71.0,29.87,SSE,156,0.0,5.0,80,0.00,,,0.00,weatherlink.com 1.10,2013-05-20 02:56:00,
2013-05-19 22:11:00,77.5,71.0,29.88,SSE,153,1.0,4.0,81,0.00,,,0.00,weatherlink.com 1.10,2013-05-20 03:11:00,
2013-05-19 22:26:00,77.2,71.0,29.88,SSW,213,0.0,7.0,81,0.00,,,0.00,weatherlink.com 1.10,2013-05-20 03:26:00,
2013-05-19 22:41:00,77.0,71.0,29.88,West,271,1.0,2.0,82,0.00,,,0.00,weatherlink.com 1.10,2013-05-20 03:41:00,
2013-05-19 22:56:00,77.1,72.0,29.88,West,276,0.0,3.0,83,0.00,,,0.00,weatherlink.com 1.10,2013-05-20 03:56:00,
2013-05-19 23:11:00,76.7,72.0,29.88,SW,226,2.0,3.0,84,0.00,,,0.00,weatherlink.com 1.10,2013-05-20 04:11:00,
2013-05-19 23:26:00,76.5,71.0,29.89,NNW,340,0.0,4.0,84,0.00,,,0.00,weatherlink.com 1.10,2013-05-20 04:26:00,
2013-05-19 23:41:00,76.3,72.0,29.89,ESE,105,3.0,3.0,85,0.00,,,0.00,weatherlink.com 1.10,2013-05-20 04:41:00,
2013-05-19 23:56:00,76.2,71.0,29.89,WSW,249,1.0,3.0,85,0.00,,,0.00,weatherlink.com 1.10,2013-05-20 04:56:00,